Location: San Pelegr�n
(42.1868°N, 0.0079°E)
Time: 14:57:39
(UTC+00:00)

CSL-04 Debris - Pass Details

Date: 24 January 2020
Orbit: 828 x 848 km, 99.0° (Epoch: 22 February)

Event Time Altitude Azimuth Distance (km) Brightness Sun altitude
Rises 18:20:06 0° 157° (SSE) 3,353 7.2 -14.2°
Reaches altitude 10° 18:22:27 10° 155° (SSE) 2,424 6.5 -14.6°
Maximum altitude 18:27:47 69° 73° (ENE) 886 4.1 -15.6°
Drops below altitude 10° 18:33:09 10° 351° (N) 2,447 6.6 -16.6°
Sets 18:35:32 0° 349° (N) 3,388 7.4 -17.0°
